When you browse on this site, cookies collect data to enhance your experience and personalize the content and advertising you see.
Visit our Privacy Policy to learn more. By continuing to use the site, you agree to this use of cookies and data.
  • In Österreich
  • Länderverzeichnis
  • Für 7 Tage
  • Wassertemperatur
  • Wetterkarte
  • News
  • Widgets
  • user-avatar
    Anmelden

    Stündliche Wetter Huichapan

    Heute, 25 August, Sonntag

    Zeit Temperatur Niederschläge Wind Luftdruck Luftfeuchtigkeit
    00:00 +18°C° 0.2 mm 1 m/S 596 mmHg 85%
    01:00 +18°C° 0.2 mm 1 m/S 595 mmHg 85%
    02:00 +18°C° 0.2 mm 1 m/S 595 mmHg 84%
    03:00 +16°C° 0 mm 0 m/S 595 mmHg 84%
    04:00 +15°C° 0 mm 0 m/S 594 mmHg 84%
    05:00 +15°C° 0 mm 0 m/S 594 mmHg 84%
    06:00 +18°C° 0 mm 1 m/S 595 mmHg 79%
    07:00 +20°C° 0 mm 1 m/S 596 mmHg 74%
    08:00 +21°C° 0 mm 1 m/S 597 mmHg 69%
    09:00 +21°C° 0 mm 2 m/S 597 mmHg 64%
    10:00 +24°C° 0 mm 2 m/S 597 mmHg 59%
    11:00 +25°C° 0 mm 2 m/S 597 mmHg 55%
    12:00 +26°C° 0.1 mm 2 m/S 597 mmHg 53%
    13:00 +26°C° 0.1 mm 2 m/S 596 mmHg 50%
    14:00 +27°C° 0.1 mm 2 m/S 596 mmHg 48%
    15:00 +26°C° 0.4 mm 2 m/S 596 mmHg 53%
    16:00 +25°C° 0.4 mm 2 m/S 595 mmHg 58%
    17:00 +25°C° 0.4 mm 1 m/S 595 mmHg 63%
    18:00 +23°C° 0.9 mm 1 m/S 595 mmHg 69%
    19:00 +21°C° 0.9 mm 1 m/S 595 mmHg 74%
    20:00 +20°C° 0.9 mm 1 m/S 595 mmHg 80%
    21:00 +19°C° 1.7 mm 1 m/S 595 mmHg 81%
    22:00 +19°C° 1.7 mm 1 m/S 595 mmHg 83%
    23:00 +18°C° 1.7 mm 2 m/S 595 mmHg 84%

    Morgen, 26 August, Montag

    Zeit Temperatur Niederschläge Wind Luftdruck Luftfeuchtigkeit
    00:00 +17°C° 1.1 mm 2 m/S 594 mmHg 85%
    01:00 +17°C° 1.1 mm 2 m/S 594 mmHg 85%
    02:00 +17°C° 1.1 mm 2 m/S 594 mmHg 86%
    03:00 +18°C° 0.4 mm 1 m/S 593 mmHg 87%
    04:00 +18°C° 0.4 mm 1 m/S 593 mmHg 87%
    05:00 +16°C° 0.4 mm 1 m/S 593 mmHg 88%
    06:00 +19°C° 0 mm 1 m/S 594 mmHg 82%
    07:00 +20°C° 0 mm 1 m/S 595 mmHg 76%
    08:00 +21°C° 0 mm 1 m/S 595 mmHg 70%
    09:00 +22°C° 0.9 mm 1 m/S 595 mmHg 67%
    10:00 +23°C° 0.9 mm 1 m/S 595 mmHg 63%
    11:00 +24°C° 0.9 mm 1 m/S 595 mmHg 59%
    12:00 +24°C° 0.6 mm 1 m/S 595 mmHg 57%
    13:00 +25°C° 0.6 mm 1 m/S 595 mmHg 55%
    14:00 +25°C° 0.6 mm 2 m/S 595 mmHg 53%
    15:00 +25°C° 1.4 mm 2 m/S 594 mmHg 58%
    16:00 +24°C° 1.4 mm 2 m/S 594 mmHg 63%
    17:00 +23°C° 1.4 mm 2 m/S 593 mmHg 68%
    18:00 +22°C° 1.4 mm 1 m/S 594 mmHg 72%
    19:00 +21°C° 1.4 mm 1 m/S 594 mmHg 77%
    20:00 +19°C° 1.4 mm 1 m/S 594 mmHg 81%
    21:00 +19°C° 0.6 mm 1 m/S 594 mmHg 83%
    22:00 +17°C° 0.6 mm 2 m/S 594 mmHg 85%
    23:00 +17°C° 0.6 mm 2 m/S 594 mmHg 87%

    übermorgen, 27 August, Dienstag

    Zeit Temperatur Niederschläge Wind Luftdruck Luftfeuchtigkeit
    00:00 +16°C° 0.2 mm 2 m/S 594 mmHg 89%
    01:00 +16°C° 0.2 mm 1 m/S 593 mmHg 90%
    02:00 +15°C° 0.2 mm 1 m/S 593 mmHg 92%
    03:00 +15°C° 0 mm 1 m/S 593 mmHg 92%
    04:00 +15°C° 0 mm 1 m/S 593 mmHg 91%
    05:00 +14°C° 0 mm 1 m/S 593 mmHg 91%
    06:00 +15°C° 0 mm 0 m/S 594 mmHg 86%
    07:00 +16°C° 0 mm 0 m/S 594 mmHg 80%
    08:00 +18°C° 0 mm 0 m/S 595 mmHg 75%
    09:00 +21°C° 0 mm 1 m/S 595 mmHg 69%
    10:00 +22°C° 0 mm 1 m/S 596 mmHg 64%
    11:00 +24°C° 0 mm 2 m/S 596 mmHg 58%
    12:00 +25°C° 0 mm 3 m/S 596 mmHg 54%
    13:00 +25°C° 0 mm 3 m/S 596 mmHg 50%
    14:00 +26°C° 0 mm 4 m/S 595 mmHg 47%
    15:00 +25°C° 0.1 mm 4 m/S 595 mmHg 54%
    16:00 +23°C° 0.1 mm 4 m/S 594 mmHg 61%
    17:00 +22°C° 0.1 mm 5 m/S 594 mmHg 67%
    18:00 +20°C° 0.8 mm 4 m/S 594 mmHg 73%
    19:00 +19°C° 0.8 mm 3 m/S 595 mmHg 78%
    20:00 +18°C° 0.8 mm 2 m/S 595 mmHg 84%
    21:00 +19°C° 0.3 mm 1 m/S 595 mmHg 84%
    22:00 +19°C° 0.3 mm 1 m/S 596 mmHg 85%
    23:00 +16°C° 0.3 mm 0 m/S 596 mmHg 86%

    28 August, Mittwoch

    Zeit Temperatur Niederschläge Wind Luftdruck Luftfeuchtigkeit
    00:00 +16°C° 0.5 mm 0 m/S 596 mmHg 86%
    01:00 +16°C° 0.5 mm 0 m/S 595 mmHg 86%
    02:00 +16°C° 0.5 mm 0 m/S 595 mmHg 86%
    03:00 +16°C° 0.4 mm 0 m/S 595 mmHg 86%
    04:00 +16°C° 0.4 mm 0 m/S 595 mmHg 86%
    05:00 +15°C° 0.4 mm 0 m/S 596 mmHg 86%
    06:00 +16°C° 0.1 mm 0 m/S 596 mmHg 81%
    07:00 +19°C° 0.1 mm 1 m/S 597 mmHg 77%
    08:00 +20°C° 0.1 mm 1 m/S 597 mmHg 73%
    09:00 +21°C° 0.3 mm 1 m/S 597 mmHg 68%
    10:00 +23°C° 0.3 mm 2 m/S 598 mmHg 64%
    11:00 +24°C° 0.3 mm 3 m/S 598 mmHg 59%
    12:00 +25°C° 0.3 mm 4 m/S 597 mmHg 57%
    13:00 +25°C° 0.3 mm 5 m/S 597 mmHg 55%
    14:00 +26°C° 0.3 mm 6 m/S 597 mmHg 53%
    15:00 +24°C° 0.1 mm 6 m/S 596 mmHg 58%
    16:00 +22°C° 0.1 mm 6 m/S 596 mmHg 63%
    17:00 +21°C° 0.1 mm 6 m/S 596 mmHg 69%
    18:00 +20°C° 0 mm 5 m/S 595 mmHg 77%
    19:00 +18°C° 0 mm 3 m/S 595 mmHg 84%
    20:00 +16°C° 0 mm 2 m/S 595 mmHg 92%
    21:00 +16°C° 0 mm 2 m/S 595 mmHg 93%
    22:00 +15°C° 0 mm 2 m/S 596 mmHg 94%
    23:00 +15°C° 0 mm 1 m/S 596 mmHg 95%

    29 August, Donnerstag

    Zeit Temperatur Niederschläge Wind Luftdruck Luftfeuchtigkeit
    00:00 +15°C° 0 mm 1 m/S 595 mmHg 95%
    01:00 +14°C° 0 mm 1 m/S 595 mmHg 95%
    02:00 +14°C° 0 mm 1 m/S 595 mmHg 95%
    03:00 +14°C° 0 mm 1 m/S 595 mmHg 94%
    04:00 +14°C° 0 mm 1 m/S 595 mmHg 94%
    05:00 +14°C° 0 mm 1 m/S 595 mmHg 93%
    06:00 +15°C° 0 mm 1 m/S 595 mmHg 88%
    07:00 +16°C° 0 mm 1 m/S 596 mmHg 83%
    08:00 +18°C° 0 mm 1 m/S 597 mmHg 77%
    09:00 +19°C° 0 mm 2 m/S 597 mmHg 67%
    10:00 +21°C° 0 mm 2 m/S 598 mmHg 56%
    11:00 +24°C° 0 mm 3 m/S 598 mmHg 45%
    12:00 +24°C° 0 mm 3 m/S 598 mmHg 43%
    13:00 +25°C° 0 mm 4 m/S 597 mmHg 40%
    14:00 +26°C° 0 mm 4 m/S 597 mmHg 37%
    15:00 +25°C° 0 mm 5 m/S 597 mmHg 46%
    16:00 +22°C° 0 mm 5 m/S 596 mmHg 55%
    17:00 +21°C° 0 mm 6 m/S 596 mmHg 64%
    18:00 +19°C° 0 mm 5 m/S 596 mmHg 73%
    19:00 +18°C° 0 mm 3 m/S 596 mmHg 82%
    20:00 +16°C° 0 mm 2 m/S 596 mmHg 92%
    21:00 +16°C° 0 mm 2 m/S 596 mmHg 93%
    22:00 +15°C° 0 mm 2 m/S 595 mmHg 93%
    23:00 +14°C° 0 mm 1 m/S 595 mmHg 94%

    30 August, Freitag

    Zeit Temperatur Niederschläge Wind Luftdruck Luftfeuchtigkeit
    00:00 +14°C° 0 mm 1 m/S 595 mmHg 95%
    01:00 +14°C° 0 mm 1 m/S 594 mmHg 95%
    02:00 +13°C° 0 mm 1 m/S 594 mmHg 95%
    03:00 +13°C° 0 mm 1 m/S 594 mmHg 95%
    04:00 +13°C° 0 mm 1 m/S 594 mmHg 94%
    05:00 +13°C° 0 mm 1 m/S 594 mmHg 94%
    06:00 +13°C° 0 mm 0 m/S 595 mmHg 87%
    07:00 +15°C° 0 mm 0 m/S 596 mmHg 79%
    08:00 +17°C° 0 mm 0 m/S 596 mmHg 72%
    09:00 +21°C° 0 mm 1 m/S 597 mmHg 62%
    10:00 +22°C° 0 mm 1 m/S 597 mmHg 52%
    11:00 +24°C° 0 mm 2 m/S 597 mmHg 41%
    12:00 +25°C° 0 mm 2 m/S 597 mmHg 39%
    13:00 +25°C° 0 mm 3 m/S 597 mmHg 37%
    14:00 +26°C° 0 mm 3 m/S 596 mmHg 34%
    15:00 +25°C° 0 mm 4 m/S 596 mmHg 41%
    16:00 +23°C° 0 mm 5 m/S 595 mmHg 47%
    17:00 +22°C° 0 mm 5 m/S 595 mmHg 54%
    18:00 +20°C° 0 mm 4 m/S 595 mmHg 64%
    19:00 +18°C° 0 mm 3 m/S 595 mmHg 74%
    20:00 +16°C° 0 mm 2 m/S 595 mmHg 84%
    21:00 +15°C° 0 mm 1 m/S 594 mmHg 87%
    22:00 +15°C° 0 mm 1 m/S 594 mmHg 90%
    23:00 +14°C° 0 mm 1 m/S 594 mmHg 93%
    Mehr zeigen